Total_Precipitation_Accumulation
0.48 0.55 0.80 0.66 0.55 0.61 0.74 0.82 0.73 0.72 0.75 0.74 0.72 0.79 0.91 1.06 1.11 1.12 1.17 1.28 1.42 1.47 1.41 1.35 1.36 1.50 1.53 1.45 1.27 1.14 1.09 1.22 1.18 1.08 0.95 0.97 1.08 1.32 1.65 1.79 1.70 1.18 1.06
0.38 0.55 0.75 0.66 0.56 0.60 0.63 0.65 0.60 0.60 0.68 0.74 0.77 0.85 0.96 1.00 1.05 1.09 1.17 1.29 1.40 1.43 1.36 1.23 1.19 1.38 1.41 1.35 1.21 1.09 1.03 1.15 1.13 1.15 1.01 0.87 1.10 1.45 1.72 1.76 1.83 1.22 1.13
0.32 0.50 0.57 0.58 0.49 0.49 0.49 0.51 0.59 0.61 0.65 0.71 0.76 0.84 0.89 0.90 0.99 1.09 1.13 1.14 1.21 1.15 1.08 1.03 1.09 1.17 1.14 1.16 1.13 1.08 1.10 1.07 1.17 1.32 1.44 0.94 0.85 1.42 1.61 1.63 1.53 1.11 0.98
0.35 0.45 0.47 0.51 0.43 0.37 0.38 0.45 0.53 0.57 0.60 0.66 0.72 0.73 0.70 0.80 0.93 0.96 0.94 0.93 0.93 0.79 0.74 0.81 0.93 0.96 1.00 0.99 0.96 1.07 1.13 1.15 1.37 1.75 1.86 1.15 0.78 1.11 1.36 1.30 1.16 0.98 0.87
0.37 0.42 0.45 0.44 0.39 0.31 0.29 0.33 0.39 0.47 0.52 0.56 0.58 0.61 0.66 0.74 0.77 0.80 0.76 0.77 0.76 0.70 0.63 0.64 0.78 0.90 0.94 0.88 0.86 1.02 1.11 1.20 1.49 1.69 1.52 1.38 1.21 1.23 1.27 1.20 1.11 1.00 0.95
0.24 0.28 0.34 0.37 0.32 0.27 0.28 0.29 0.31 0.38 0.43 0.46 0.52 0.62 0.65 0.69 0.74 0.72 0.64 0.65 0.68 0.66 0.62 0.65 0.74 0.90 0.98 0.84 0.82 1.04 1.17 1.36 1.49 1.20 1.08 1.17 1.25 1.36 1.31 1.38 1.39 1.24 1.13
0.15 0.19 0.25 0.34 0.30 0.26 0.27 0.28 0.27 0.32 0.35 0.36 0.42 0.51 0.59 0.63 0.63 0.61 0.55 0.54 0.56 0.57 0.54 0.64 0.77 0.94 1.03 0.95 0.97 1.13 1.22 1.43 1.32 1.06 1.00 1.17 1.19 1.16 1.26 1.44 1.68 1.56 1.32
0.10 0.13 0.21 0.30 0.29 0.27 0.27 0.30 0.29 0.28 0.31 0.34 0.37 0.38 0.43 0.46 0.47 0.46 0.43 0.43 0.47 0.42 0.46 0.63 0.83 0.83 0.95 1.07 1.12 1.21 1.17 1.10 0.91 0.92 0.89 0.95 0.80 0.93 1.18 1.42 1.63 1.58 1.38
0.17 0.15 0.21 0.25 0.27 0.26 0.28 0.30 0.31 0.30 0.30 0.30 0.29 0.30 0.31 0.36 0.36 0.35 0.36 0.37 0.39 0.47 0.59 0.75 0.87 0.85 0.94 1.06 1.08 1.10 1.16 1.01 0.82 0.94 0.94 1.02 0.96 1.15 1.43 1.53 1.52 1.54 1.41
0.40 0.31 0.32 0.32 0.34 0.32 0.27 0.30 0.35 0.34 0.31 0.32 0.32 0.32 0.32 0.33 0.34 0.34 0.36 0.40 0.41 0.47 0.64 0.91 1.08 0.99 1.04 1.07 1.15 1.27 1.38 1.12 0.93 0.99 1.14 1.02 1.06 1.34 1.68 1.76 1.69 1.67 1.62
0.80 0.65 0.52 0.48 0.41 0.36 0.31 0.30 0.39 0.41 0.41 0.41 0.41 0.40 0.45 0.50 0.49 0.54 0.47 0.58 0.59 0.65 0.73 0.96 1.21 1.34 1.23 1.13 1.31 1.46 1.37 1.22 1.29 1.26 1.30 1.11 1.15 1.48 1.75 1.84 1.88 1.92 1.86
1.02 0.92 0.82 0.76 0.53 0.44 0.43 0.56 0.65 0.59 0.61 0.65 0.73 0.72 0.84 0.95 0.91 0.64 0.70 0.93 1.03 1.17 1.18 1.26 1.48 1.54 1.38 1.41 1.89 2.07 1.43 1.37 1.34 1.41 1.61 1.42 1.47 1.83 2.09 1.98 1.92 2.02 1.99
1.23 0.98 0.96 1.12 0.94 0.78 0.85 0.79 0.79 0.84 0.95 0.98 0.96 1.00 1.17 1.00 0.84 0.83 0.93 1.15 1.34 1.51 1.68 1.97 2.15 1.89 1.95 2.21 2.36 2.18 1.56 1.28 1.32 1.33 1.64 1.69 1.77 2.18 2.51 2.34 2.18 2.19 2.17
1.42 1.12 0.99 1.09 1.23 1.14 1.02 1.00 0.96 0.91 1.00 1.07 1.22 1.23 1.35 1.30 1.23 1.30 1.50 1.62 1.81 1.96 2.32 2.40 2.71 2.50 2.31 2.19 2.22 2.06 1.78 1.65 1.54 1.69 1.92 1.65 1.79 2.27 2.73 2.72 2.58 2.44 2.30
1.71 1.48 1.29 1.17 1.32 1.33 1.28 1.22 1.11 1.08 1.09 1.26 1.43 1.50 1.58 1.65 1.80 1.92 1.88 2.08 2.09 2.18 2.39 2.72 2.80 2.97 3.04 3.02 2.70 2.33 2.19 2.05 1.87 1.96 2.15 2.07 1.98 2.19 2.64 3.03 2.93 2.69 2.40
2.16 2.00 1.70 1.46 1.36 1.41 1.41 1.44 1.48 1.40 1.55 1.67 1.80 1.84 2.01 2.18 2.34 2.53 2.54 2.57 2.37 2.36 2.63 2.89 3.03 3.53 3.48 3.35 2.88 2.59 2.32 2.21 2.01 1.94 2.17 2.33 2.01 1.97 2.29 2.93 3.23 3.00 2.72
2.43 2.41 2.24 2.07 2.00 2.04 2.15 2.08 1.95 2.06 2.13 2.23 2.31 2.33 2.41 2.51 2.72 2.88 2.83 2.74 2.70 2.69 2.89 3.08 3.25 3.41 3.23 3.11 2.97 2.76 2.52 2.29 2.01 1.98 2.02 2.22 2.11 1.98 2.16 2.50 2.91 2.97 2.93
2.55 2.86 2.89 2.71 2.84 2.93 3.03 2.93 2.69 2.67 2.69 2.69 2.65 2.64 2.65 2.76 2.90 3.19 3.01 2.87 3.13 2.99 3.15 3.54 3.55 3.54 3.48 3.28 3.11 2.87 2.63 2.41 1.97 1.85 1.82 2.07 2.39 2.07 2.18 2.44 2.57 2.62 2.92
2.71 3.17 3.37 3.45 3.62 3.62 3.62 3.52 3.45 3.34 3.20 2.95 2.95 2.91 2.73 2.72 2.82 3.09 2.97 3.01 3.08 3.34 3.39 3.17 3.65 3.70 3.61 3.42 2.88 2.68 2.37 2.15 1.96 1.76 1.82 1.83 2.10 2.03 2.10 2.19 2.33 2.42 2.86
3.12 3.50 3.98 4.12 4.18 3.92 3.77 3.71 3.56 3.33 3.16 3.02 3.01 2.91 2.67 2.68 2.70 3.07 2.89 2.87 2.97 3.27 3.27 3.25 3.58 3.57 3.32 3.33 2.72 2.40 2.23 1.86 1.85 1.86 1.66 1.65 1.73 1.54 1.76 2.03 2.40 2.09 2.23
3.68 3.93 4.19 4.54 4.63 4.36 4.27 4.20 4.06 3.74 3.59 3.28 2.90 2.56 2.45 2.45 2.57 2.95 2.70 2.96 2.89 2.99 3.02 3.03 3.27 3.36 3.04 3.10 3.09 2.63 2.05 1.66 1.62 1.60 1.59 1.62 1.49 1.58 1.98 2.31 2.45 2.41 2.16
3.51 3.99 4.30 4.27 4.14 3.86 3.93 4.21 4.43 4.38 3.90 3.31 2.95 2.78 2.43 2.33 2.39 2.54 2.72 2.60 2.64 2.79 2.81 2.84 3.07 3.02 2.66 2.77 3.01 3.02 2.39 2.05 1.62 1.24 1.51 1.57 1.52 1.73 1.86 1.94 2.25 2.51 2.42
2.94 3.43 3.56 3.39 3.31 3.15 3.20 3.51 3.71 3.92 3.65 3.26 2.96 2.69 2.41 2.29 2.22 2.29 2.43 2.44 2.44 2.34 2.54 2.72 2.65 2.65 2.52 2.45 2.62 2.97 2.67 2.23 1.82 1.36 1.21 1.29 1.50 1.71 1.74 1.85 1.86 2.01 2.10
2.09 2.32 2.48 2.65 2.71 2.71 2.74 2.91 3.09 3.23 3.15 2.98 2.88 2.62 2.36 2.10 2.00 2.02 2.07 2.07 2.11 2.11 2.37 2.16 2.15 2.39 2.50 2.37 2.42 2.42 2.40 2.44 2.32 1.73 1.29 1.21 1.40 1.56 1.57 1.49 1.61 1.82 1.89
1.80 1.99 2.19 2.46 2.59 2.65 2.61 2.68 2.86 3.11 3.05 2.80 2.58 2.49 2.31 2.10 1.91 1.80 1.89 1.90 1.88 1.88 1.99 2.00 2.24 2.24 2.29 2.28 2.27 2.25 2.33 2.35 2.22 2.04 1.68 1.51 1.44 1.28 1.30 1.36 1.49 1.68 1.83
1.61 1.83 2.03 2.21 2.20 2.26 2.33 2.36 2.37 2.46 2.51 2.37 2.22 2.14 1.98 1.83 1.71 1.71 1.75 1.82 1.77 1.77 1.90 1.95 2.00 2.00 2.06 2.11 2.07 2.06 2.24 2.15 2.08 2.16 1.86 1.70 1.63 1.37 1.35 1.38 1.38 1.51 1.60